IRIDIUM 33 DEB, 36028

Orbit data source: Space-Track

IRIDIUM 33 DEB, 36028 is space debris in LEO originally from a launch on Sun, 14 Sep 1997 UTC launched from the Tyuratam Missile And Space Complex (TTMTR). The debris from Iridium 33, an American commercial communications satellite, has been tracked extensively since its accidental collision with the defunct Russian satellite Cosmos 2251 in 2009. This event, occurring at high speed in low Earth orbit (LEO), generated thousands of pieces of space debris, significantly increasing the risk of further collisions. The Iridium 33 debris cloud has impacted space traffic management and orbital debris mitigation strategies, making it a subject of ongoing study in space situational awareness.

Loading next visibility...
Identifier
36028, 1997-051VK
Orbit
LEO
Country
Flag of USUS
Related business
Manufacturer
Unknown
Mission
Spacecraft
Bus & Motor
Unknown
Mass
Unknown
Launch date (UTC)
1997-09-14 (28 years ago)
Launch vehicle
Unknown
Launch site
Tyuratam Missile And Space Complex (TTMTR)
Object type
Payload
Rocket body
Debris
Shape & HBR
Unknown shape, 0.1 m
Radar Cross Section
Small (<0.1 m²)

Expand to show TLE details & history
Last TLE update: 7 hours ago

TLE from 7 hours ago
0 IRIDIUM 33 DEB
1 36028U 97051VK  25312.75855611  .00033525  00000-0  31941-2 0  9990
2 36028  86.3225 322.6523 0019563 159.7498 200.4511 14.93082297866173
Epoch: 2025-11-08T18:12Z
TLE epoch observation values (Epoch: 2025-11-08T18:12:19.247Z)
Latitude
-0.00002°
Longitude
1.38853°
Altitude
604.24 km
Speed
7.55 km/s
True Right ascension
21h 30m 36s
True Declination
0° 00' 00"
Sunlit
Object was in daylight at epoch
Visualization orbit readout
Latitude
Unknown
Longitude
Unknown
Altitude
Unknown
Speed
Unknown
Apparent Right ascension
Unknown
Apparent Declination
Unknown
Sunlit
N/A
Visualization observer readout
Local Sidereal Time
21:30:31
Azimuth
Unknown
Elevation
Unknown
Doppler factor
Unknown
Orbital elements
Apogee altitude
598.837 km
Perigee altitude
571.592 km
Semi-major axis
6,963.352 km
Eccentricity
0.00196
Inclination
86.3225°
RAAN
322.6523°
Arg. of periapsis
159.7498°
True anomaly
200.37295°
Mean anomaly
200.4511°
Eccentric anomaly
200.41201°
Mean motion
3.73522 °/min
Orbital period
96.38 mins
BSTAR
0.0031941
Loading maneuver chart data...
Computing Atmospheric mass density...

Documentation

Showing up to 5 results
|